DW6722 Weather Reports


Display with metric or nautical units.
time (UTC)temp
F
wind
direction
speed
MPH
gust
MPH
rain 1hr
in
rain 24hr
in
rain mn
in
humidity
%
barometer
mb
20260506194519 53 340 0.0 2.0 0.00 0.00 0.00 67 1011.9
20260506194018 52 9 0.0 4.0 0.00 0.00 0.00 67 1011.9
20260506193518 53 13 2.0 4.0 0.00 0.00 0.00 68 1011.9
20260506193018 53 30 2.0 4.0 0.00 0.00 0.00 68 1011.9
20260506192518 53 20 2.0 5.0 0.00 0.00 0.00 67 1011.9
20260506192017 53 18 3.0 5.0 0.00 0.00 0.00 68 1011.8
20260506191516 53 25 3.0 5.0 0.00 0.00 0.00 67 1011.6
20260506191017 53 53 3.0 5.0 0.00 0.00 0.00 68 1011.5
20260506190516 53 41 1.0 3.0 0.00 0.00 0.00 66 1011.5
20260506190014 53 80 1.0 4.0 0.00 0.00 0.00 66 1011.4
20260506185515 53 53 2.0 5.0 0.00 0.00 0.00 67 1011.4
20260506185016 53 9 3.0 5.0 0.00 0.00 0.00 67 1011.3
20260506184521 53 9 2.0 6.0 0.00 0.00 0.00 66 1011.3
20260506184013 53 9 4.0 8.0 0.00 0.00 0.00 66 1011.2
20260506183513 53 25 5.0 9.0 0.00 0.00 0.00 65 1011.2
20260506183013 53 30 5.0 9.0 0.00 0.00 0.00 64 1011.0
20260506182511 53 70 5.0 7.0 0.00 0.00 0.00 64 1011.0
20260506182011 53 51 5.0 7.0 0.00 0.00 0.00 64 1011.0
20260506181511 53 45 4.0 6.0 0.00 0.00 0.00 65 1011.0
20260506181011 53 27 4.0 6.0 0.00 0.00 0.00 65 1010.9
20260506180509 53 28 4.0 8.0 0.00 0.00 0.00 65 1010.8
20260506180009 53 36 6.0 8.0 0.00 0.00 0.00 65 1010.8
20260506175508 53 34 5.0 8.0 0.00 0.00 0.00 64 1010.7
20260506175007 53 32 6.0 9.0 0.00 0.00 0.00 64 1010.6
20260506174506 53 44 3.0 9.0 0.00 0.00 0.00 66 1010.6
20260506174009 53 44 5.0 8.0 0.00 0.00 0.00 65 1010.5
20260506173505 53 25 5.0 8.0 0.00 0.00 0.00 64 1010.5
20260506173005 53 39 6.0 8.0 0.00 0.00 0.00 65 1010.4
20260506172505 53 46 4.0 8.0 0.00 0.00 0.00 64 1010.4
20260506172004 53 37 4.0 8.0 0.00 0.00 0.00 64 1010.4
20260506171504 53 28 4.0 11.0 0.00 0.00 0.00 65 1010.4
20260506171003 53 39 7.0 11.0 0.00 0.00 0.00 64 1010.3
20260506170505 53 47 7.0 9.0 0.00 0.00 0.00 63 1010.2
20260506170008 53 34 6.0 9.0 0.00 0.00 0.00 64 1010.2
20260506165503 53 17 6.0 11.0 0.00 0.00 0.00 64 1010.2
20260506165005 53 39 8.0 11.0 0.00 0.00 0.00 63 1010.2
20260506164502 53 22 7.0 14.0 0.00 0.00 0.00 64 1010.3
20260506164002 53 37 10.0 15.0 0.00 0.00 0.00 63 1010.2
20260506163502 53 37 9.0 15.0 0.00 0.00 0.00 64 1010.3
20260506163005 53 22 12.0 15.0 0.00 0.00 0.00 63 1010.3
20260506162502 53 19 9.0 15.0 0.00 0.00 0.00 63 1010.3
20260506162001 53 32 10.0 12.0 0.00 0.00 0.00 64 1010.2
20260506161612 53 41 7.0 13.0 0.00 0.00 0.00 63 1010.2
20260506161100 53 30 7.0 13.0 0.00 0.00 0.00 63 1010.2
20260506160600 53 44 8.0 12.0 0.00 0.00 0.00 63 1010.2
20260506160110 53 30 8.0 12.0 0.00 0.00 0.00 63 1010.2
20260506155600 53 32 7.0 9.0 0.00 0.00 0.00 64 1010.2
20260506155059 53 34 7.0 11.0 0.00 0.00 0.00 63 1010.2
20260506154602 53 33 7.0 11.0 0.00 0.00 0.00 64 1010.2
20260506154059 53 13 8.0 11.0 0.00 0.00 0.00 64 1010.2
20260506153559 53 30 7.0 11.0 0.00 0.00 0.00 64 1010.2
20260506153058 53 32 6.0 11.0 0.00 0.00 0.00 65 1010.2
20260506152558 53 30 7.0 11.0 0.00 0.00 0.00 64 1010.2
20260506152058 53 14 7.0 16.0 0.00 0.00 0.00 65 1010.2
20260506151558 53 22 10.0 16.0 0.00 0.00 0.00 65 1010.1
20260506151057 53 20 9.0 14.0 0.00 0.00 0.00 63 1010.1
20260506150559 53 4 10.0 15.0 0.00 0.00 0.00 63 1010.1
20260506145556 53 24 9.0 14.0 0.00 0.00 0.00 62 1010.1
20260506145058 53 7 10.0 16.0 0.00 0.00 0.00 62 1010.1
20260506144609 53 23 10.0 16.0 0.00 0.00 0.00 62 1010.0
20260506144054 53 22 11.0 16.0 0.00 0.00 0.00 62 1010.0
20260506143554 53 23 10.0 14.0 0.00 0.00 0.00 63 1010.0
20260506143056 54 7 8.0 18.0 0.00 0.00 0.00 60 1010.0
20260506142557 53 354 11.0 18.0 0.00 0.00 0.00 61 1010.0
20260506142053 53 18 9.0 14.0 0.00 0.00 0.00 61 1010.0
20260506141554 54 13 9.0 14.0 0.00 0.00 0.00 61 1010.0
20260506141056 54 357 8.0 18.0 0.00 0.00 0.00 61 1009.9
20260506140556 54 30 11.0 19.0 0.00 0.00 0.00 61 1009.9
20260506140106 54 17 15.0 21.0 0.00 0.00 0.00 59 1010.0
20260506135551 54 19 15.0 22.0 0.00 0.00 0.00 58 1010.0
20260506135051 54 27 13.0 23.0 0.00 0.00 0.00 61 1009.9
20260506134552 54 31 15.0 20.0 0.00 0.00 0.00 58 1009.7
20260506134051 55 349 15.0 20.0 0.00 0.00 0.00 58 1009.6
20260506133551 55 29 9.0 16.0 0.00 0.00 0.00 60 1009.6
20260506133111 54 27 12.0 18.0 0.00 0.00 0.00 58 1009.6
20260506132554 54 21 11.0 18.0 0.00 0.00 0.00 58 1009.6
20260506132050 54 18 11.0 17.0 0.00 0.00 0.00 61 1009.6
20260506131549 54 360 11.0 16.0 0.00 0.00 0.00 60 1009.6
20260506131053 54 27 13.0 16.0 0.00 0.00 0.00 62 1009.6
20260506130550 54 352 9.0 14.0 0.00 0.00 0.00 63 1009.4
20260506130131 54 355 11.0 14.0 0.00 0.00 0.00 65 1009.4
20260506125548 54 352 8.0 13.0 0.00 0.00 0.00 66 1009.4
20260506125048 54 347 10.0 15.0 0.00 0.00 0.00 67 1009.4
20260506124551 54 337 12.0 15.0 0.00 0.00 0.00 65 1009.4
20260506124048 54 346 11.0 15.0 0.00 0.00 0.00 67 1009.4
20260506123548 54 351 10.0 15.0 0.00 0.00 0.00 68 1009.3
20260506123048 54 338 11.0 15.0 0.00 0.00 0.00 69 1009.3
20260506122548 54 337 11.0 15.0 0.00 0.00 0.00 69 1009.3
20260506122046 54 343 11.0 15.0 0.00 0.00 0.00 69 1009.2
20260506121552 54 351 12.0 18.0 0.00 0.00 0.00 69 1009.3
20260506121048 54 328 12.0 18.0 0.00 0.00 0.00 69 1009.2
20260506120546 54 352 13.0 19.0 0.00 0.00 0.00 68 1009.2
20260506120046 54 328 14.0 18.0 0.00 0.00 0.00 68 1009.1
20260506115547 54 331 13.0 18.0 0.00 0.00 0.00 67 1009.1
20260506115044 54 346 13.0 20.0 0.00 0.00 0.00 69 1009.1
20260506114544 54 323 15.0 20.0 0.00 0.00 0.00 68 1009.1
20260506114044 54 354 15.0 20.0 0.00 0.00 0.00 67 1009.0
20260506113544 55 341 12.0 18.0 0.00 0.00 0.00 68 1009.0
20260506113050 55 321 13.0 20.0 0.00 0.00 0.00 66 1009.0
20260506112544 55 356 16.0 20.0 0.00 0.00 0.00 65 1009.0
20260506112043 55 343 14.0 19.0 0.00 0.00 0.00 62 1009.0
20260506111544 56 314 12.0 18.0 0.00 0.00 0.00 58 1009.0
20260506111043 56 343 13.0 17.0 0.00 0.00 0.00 58 1009.0
20260506110543 56 345 10.0 19.0 0.00 0.00 0.00 60 1008.9
20260506110044 56 356 13.0 19.0 0.00 0.00 0.00 60 1008.9
20260506105543 55 2 11.0 16.0 0.00 0.00 0.00 60 1008.9
20260506105041 55 356 12.0 16.0 0.00 0.00 0.00 61 1008.9
20260506104543 55 359 12.0 15.0 0.00 0.00 0.00 62 1008.9
20260506104040 55 352 9.0 17.0 0.00 0.00 0.00 62 1009.0
20260506103539 55 8 12.0 17.0 0.00 0.00 0.00 60 1009.0
20260506103040 55 355 10.0 16.0 0.00 0.00 0.00 58 1009.0
20260506102539 55 10 9.0 16.0 0.00 0.00 0.00 58 1008.9
20260506102037 55 13 10.0 21.0 0.00 0.00 0.00 59 1008.9
20260506101538 55 358 17.0 21.0 0.00 0.00 0.00 56 1008.9
20260506101036 55 1 12.0 19.0 0.00 0.00 0.00 60 1008.9
20260506100535 55 23 10.0 20.0 0.00 0.00 0.00 61 1008.9
20260506100037 55 1 15.0 20.0 0.00 0.00 0.00 60 1008.9
20260506095535 54 14 16.0 20.0 0.00 0.00 0.00 59 1008.8
20260506095033 54 5 10.0 17.0 0.00 0.00 0.00 64 1008.8
20260506094533 54 10 11.0 17.0 0.00 0.00 0.00 66 1008.8
20260506094031 54 35 12.0 19.0 0.00 0.00 0.00 64 1008.9
20260506093531 54 23 15.0 19.0 0.00 0.00 0.00 63 1008.8
20260506093035 54 37 11.0 17.0 0.00 0.00 0.00 64 1008.8
20260506092531 54 31 14.0 17.0 0.00 0.00 0.00 63 1008.7
20260506092030 54 4 12.0 18.0 0.00 0.00 0.00 62 1008.7
20260506091530 54 6 10.0 18.0 0.00 0.00 0.00 63 1008.7
20260506091031 54 20 12.0 20.0 0.00 0.00 0.00 64 1008.7
20260506090528 54 360 14.0 20.0 0.00 0.00 0.00 62 1008.6
20260506090036 54 29 14.0 19.0 0.00 0.00 0.00 61 1008.6
20260506085526 54 352 13.0 19.0 0.00 0.00 0.00 65 1008.6
20260506085026 54 337 12.0 19.0 0.00 0.00 0.00 68 1008.6
20260506084527 54 330 13.0 20.0 0.00 0.00 0.00 68 1008.5
20260506084023 53 355 13.0 20.0 0.00 0.00 0.00 68 1008.5
20260506083521 53 335 13.0 18.0 0.00 0.00 0.00 75 1008.5
20260506083028 53 334 15.0 18.0 0.00 0.00 0.00 76 1008.5
20260506082519 53 309 11.0 17.0 0.00 0.00 0.00 77 1008.5
20260506082017 53 333 13.0 17.0 0.00 0.00 0.00 78 1008.4
20260506081517 52 333 12.0 17.0 0.00 0.00 0.00 78 1008.4
20260506081016 52 317 11.0 17.0 0.00 0.00 0.00 79 1008.4
20260506080516 52 321 12.0 17.0 0.00 0.00 0.00 79 1008.4
20260506073513 51 322 13.0 16.0 0.00 0.00 0.00 80 1008.4
20260506073013 51 333 12.0 15.0 0.00 0.00 0.00 80 1008.4
20260506072513 51 316 9.0 16.0 0.00 0.00 0.00 81 1008.4
20260506072012 51 351 11.0 17.0 0.00 0.00 0.00 81 1008.4
20260506071512 51 351 11.0 17.0 0.00 0.00 0.00 82 1008.4
20260506071015 51 326 11.0 15.0 0.00 0.00 0.00 81 1008.4
20260506070513 51 329 10.0 16.0 0.00 0.00 0.00 82 1008.4
20260506062506 50 335 12.0 15.0 0.00 0.00 0.00 82 1008.2
20260506062008 50 342 10.0 13.0 0.00 0.00 0.00 83 1008.2
20260506061606 50 337 10.0 14.0 0.00 0.00 0.00 84 1008.1
20260506061007 50 313 8.0 12.0 0.00 0.00 0.00 84 1008.1
20260506060508 50 321 8.0 14.0 0.00 0.00 0.00 84 1008.0
20260506051001 49 326 7.0 11.0 0.00 0.00 0.00 82 1008.2
20260506050503 49 314 7.0 11.0 0.00 0.00 0.00 83 1008.3
20260506045059 49 340 10.0 13.0 0.00 0.00 0.00 81 1008.3
20260506044600 49 1 10.0 0.0 0.00 0.00 0.00 81 1008.3
20260506044059 49 329 8.0 16.0 0.00 0.00 0.00 82 1008.3
20260506043559 49 360 11.0 16.0 0.00 0.00 0.00 81 1008.2
20260506043110 49 344 12.0 16.0 0.00 0.00 0.00 81 1008.2
20260506042559 49 358 13.0 16.0 0.00 0.00 0.00 81 1008.2
20260506042059 49 350 11.0 16.0 0.00 0.00 0.00 83 1008.2
20260506041559 49 323 11.0 16.0 0.00 0.00 0.00 82 1008.2
20260506041057 49 318 10.0 14.0 0.00 0.00 0.00 82 1008.3
20260506040558 49 356 9.0 14.0 0.00 0.00 0.00 82 1008.3
20260506040057 49 330 10.0 14.0 0.00 0.00 0.00 81 1008.3
20260506035556 49 346 11.0 17.0 0.00 0.00 0.00 81 1008.3
20260506035055 49 352 14.0 17.0 0.00 0.00 0.00 81 1008.3
20260506034613 49 352 13.0 18.0 0.00 0.00 0.00 81 1008.3
20260506034054 49 330 15.0 18.0 0.00 0.00 0.00 80 1008.3
20260506033655 49 344 10.0 18.0 0.00 0.00 0.00 81 1008.4
20260506033054 49 12 13.0 20.0 0.00 0.00 0.00 80 1008.4
20260506032553 49 338 12.0 20.0 0.00 0.00 0.00 80 1008.4
20260506032053 49 3 15.0 20.0 0.00 0.00 0.00 80 1008.4
20260506031554 49 334 13.0 17.0 0.00 0.00 0.00 81 1008.4
20260506031053 49 337 11.0 17.0 0.00 0.00 0.00 80 1008.5
20260506030550 49 336 13.0 17.0 0.00 0.00 0.00 80 1008.5
20260506030050 49 355 11.0 15.0 0.00 0.00 0.00 80 1008.5
20260506025548 49 345 10.0 14.0 0.00 0.00 0.00 80 1008.6
20260506025047 49 13 10.0 16.0 0.00 0.00 0.00 80 1008.5
20260506024552 49 354 10.0 17.0 0.00 0.00 0.00 80 1008.7
20260506024047 49 360 11.0 17.0 0.00 0.00 0.00 78 1008.7
20260506023546 50 358 10.0 15.0 0.00 0.00 0.00 77 1008.7
20260506023054 50 326 10.0 15.0 0.00 0.00 0.00 77 1008.6
20260506022545 50 333 10.0 17.0 0.00 0.00 0.00 77 1008.7
20260506022045 50 343 12.0 18.0 0.00 0.00 0.00 77 1008.7
20260506021544 50 13 12.0 18.0 0.00 0.00 0.00 78 1008.7
20260506021043 50 9 11.0 14.0 0.00 0.00 0.00 79 1008.6
20260506020542 50 340 10.0 14.0 0.00 0.00 0.00 79 1008.7
20260506020043 50 354 10.0 14.0 0.00 0.00 0.00 79 1008.7
20260506015542 50 359 10.0 13.0 0.00 0.00 0.00 79 1008.6
20260506015045 50 5 10.0 14.0 0.00 0.00 0.00 80 1008.7
20260506014541 49 348 10.0 15.0 0.00 0.00 0.00 80 1008.6
20260506014041 49 339 10.0 15.0 0.00 0.00 0.00 80 1008.6
20260506013543 49 354 9.0 15.0 0.00 0.00 0.00 81 1008.6
20260506013042 49 347 8.0 15.0 0.00 0.00 0.00 80 1008.6
20260506012540 49 334 9.0 15.0 0.00 0.00 0.00 80 1008.6
20260506012041 49 333 11.0 15.0 0.00 0.00 0.00 80 1008.7
20260506011543 49 335 10.0 17.0 0.00 0.00 0.00 80 1008.7
20260506011037 49 334 10.0 17.0 0.00 0.00 0.00 80 1008.7
20260506010537 49 323 11.0 16.0 0.00 0.00 0.00 80 1008.7
20260506010051 49 335 11.0 14.0 0.00 0.00 0.00 80 1008.8
20260506005535 49 326 8.0 15.0 0.00 0.00 0.00 80 1008.8
20260506005034 49 320 11.0 15.0 0.00 0.00 0.00 79 1008.9
20260506004532 49 317 9.0 13.0 0.00 0.00 0.00 78 1009.0
20260506004032 50 328 8.0 14.0 0.00 0.00 0.00 79 1009.0
20260506003531 49 315 10.0 15.0 0.00 0.00 0.00 78 1009.1
20260506003031 50 328 10.0 15.0 0.00 0.00 0.00 78 1009.1
20260506002532 50 336 11.0 15.0 0.00 0.00 0.00 78 1009.1
20260506002029 50 337 10.0 15.0 0.00 0.00 0.00 78 1009.1
20260506001530 50 335 13.0 15.0 0.00 0.00 0.00 76 1009.2
20260506001028 50 334 11.0 15.0 0.00 0.00 0.00 77 1009.2
20260506000527 50 335 9.0 15.0 0.00 0.00 0.00 77 1009.2
20260506000026 50 352 10.0 13.0 0.00 0.00 0.00 77 1009.2
20260505235524 50 343 10.0 14.0 0.00 0.02 0.00 76 1009.3
20260505235023 50 342 9.0 16.0 0.00 0.02 0.00 77 1009.3
20260505234523 50 330 10.0 16.0 0.00 0.02 0.00 76 1009.3
20260505234022 50 356 10.0 14.0 0.00 0.02 0.00 76 1009.4
20260505233521 50 15 10.0 15.0 0.00 0.02 0.00 75 1009.4
20260505233021 50 354 10.0 15.0 0.00 0.02 0.00 75 1009.4
20260505232519 50 333 11.0 15.0 0.00 0.02 0.00 75 1009.4
20260505232019 50 346 10.0 16.0 0.00 0.02 0.00 75 1009.5
20260505231518 50 360 9.0 16.0 0.00 0.02 0.00 74 1009.5
20260505231017 50 348 12.0 16.0 0.00 0.02 0.00 74 1009.6
20260505230516 50 330 10.0 15.0 0.00 0.02 0.00 74 1009.6
20260505230023 50 360 10.0 15.0 0.00 0.02 0.00 74 1009.7
20260505225516 50 359 10.0 16.0 0.00 0.02 0.00 74 1009.7
20260505225014 50 349 11.0 14.0 0.00 0.02 0.00 73 1009.7
20260505224513 50 356 10.0 13.0 0.00 0.02 0.00 74 1009.7
20260505224012 50 1 9.0 16.0 0.00 0.02 0.00 74 1009.7
20260505223511 50 13 10.0 16.0 0.00 0.02 0.00 74 1009.8
20260505223011 50 1 10.0 15.0 0.00 0.02 0.00 74 1009.8
20260505222513 50 339 11.0 15.0 0.00 0.02 0.00 74 1009.8
20260505222009 50 342 10.0 14.0 0.00 0.02 0.00 75 1009.8
20260505221509 50 8 11.0 15.0 0.00 0.02 0.00 74 1009.9
20260505221009 50 8 10.0 15.0 0.00 0.02 0.00 74 1009.9
20260505220506 50 15 8.0 15.0 0.00 0.02 0.00 74 1009.9
20260505220006 50 1 12.0 16.0 0.00 0.02 0.02 74 1009.9
20260505215507 50 325 10.0 16.0 0.00 0.02 0.02 75 1009.9
20260505215005 50 358 9.0 14.0 0.00 0.02 0.02 75 1010.0
20260505214506 50 5 10.0 14.0 0.00 0.02 0.02 75 1010.0
20260505214006 50 348 9.0 17.0 0.00 0.02 0.02 75 1010.0
20260505213506 50 338 11.0 17.0 0.00 0.02 0.02 75 1010.0
20260505213012 50 326 11.0 15.0 0.00 0.02 0.02 75 1010.0
20260505212506 51 332 10.0 15.0 0.00 0.02 0.02 76 1010.0
20260505212004 51 347 11.0 16.0 0.00 0.02 0.02 75 1010.0
20260505211503 51 3 10.0 17.0 0.00 0.02 0.02 75 1009.9
20260505211003 51 336 10.0 17.0 0.00 0.02 0.02 76 1010.0
20260505210503 51 5 11.0 15.0 0.00 0.02 0.02 75 1010.0
20260505210003 51 352 9.0 17.0 0.00 0.02 0.02 75 1010.0
20260505205502 51 1 12.0 17.0 0.00 0.02 0.02 75 1010.0
20260505205001 51 355 10.0 17.0 0.00 0.02 0.02 75 1010.0
20260505204501 51 340 12.0 17.0 0.00 0.02 0.02 75 1010.0
20260505204003 51 343 12.0 17.0 0.00 0.02 0.02 75 1010.1
20260505203502 51 351 12.0 18.0 0.00 0.02 0.02 75 1010.0
20260505203002 51 354 13.0 19.0 0.00 0.02 0.02 75 1010.1
20260505202502 51 359 14.0 19.0 0.00 0.02 0.02 75 1010.1
20260505202002 52 333 12.0 20.0 0.00 0.02 0.02 74 1010.1
20260505201600 52 323 14.0 20.0 0.00 0.02 0.02 74 1010.1
20260505201100 52 333 13.0 19.0 0.00 0.02 0.02 75 1010.1
20260505200601 52 354 13.0 21.0 0.00 0.02 0.02 75 1010.1
20260505200059 52 337 15.0 21.0 0.00 0.02 0.02 74 1010.1
20260505195601 52 344 12.0 17.0 0.00 0.02 0.02 74 1010.0
20260505195059 52 330 11.0 17.0 0.00 0.02 0.02 74 1010.0
20260505194559 52 337 12.0 17.0 0.00 0.02 0.02 74 1010.0